Regional Weather Roundup
Issued by NWS

Home | Current Version | Previous Version | Graphics & Text | Print | Product List | Glossary On
Versions: 1 2 3 4 5 6 7 8 9 10 11 12 13 14 15 16 17 18 19 20 21 22 23 24 25 26 27 28 29 30 31 32 33 34 35 36 37 38 39 40 41 42 43 44 45 46 47 48 49 50
000
ASUS43 KLSX 211707
RWRMO

WEATHER SUMMARY FOR MISSOURI
NATIONAL WEATHER SERVICE SPRINGFIELD MO
1200 PM CDT SUN SEP 21 2014

NOTE: "FAIR" INDICATES FEW OR NO CLOUDS BELOW 12,000 FEET WITH NO
       SIGNIFICANT WEATHER AND/OR OBSTRUCTIONS TO VISIBILITY.
       CURRENT SKY AND/OR WEATHER CONDITIONS ARE NOT AVAILABLE FOR
       CHILLICOTHE AND FARMINGTON.

MOZ001>031-035>038-043-044-053-054-211800-
...NORTHERN AND WESTERN MISSOURI...

CITY           SKY/WX    TMP DP  RH WIND       PRES   REMARKS
KANSAS CTY INT SUNNY     73  48  41 NW20G28   30.18S
KANSAS C DTWN  SUNNY     75  49  39 N8G18     30.17R
LEE`S SUMMIT   SUNNY     74  49  41 NW15G22   30.18S
ST JOSEPH      SUNNY     73  49  42 N18G24    30.19R
CHILLICOTHE      N/A     73  49  42 VRB5G17   30.15S
KIRKSVILLE     MOSUNNY   69  51  52 N17G24    30.13R

$$
MOZ066>068-077>081-088>096-101>105-211800-
...SOUTHWEST MISSOURI...

CITY           SKY/WX    TMP DP  RH WIND       PRES   REMARKS
SPRINGFIELD    SUNNY     76  46  34 N15       30.16S
JOPLIN         SUNNY     76  44  32 NE15G22   30.18S

$$
MOZ032>034-039>042-045>050-055>058-069>072-211800-
...CENTRAL MISSOURI...

CITY           SKY/WX    TMP DP  RH WIND       PRES   REMARKS
COLUMBIA       SUNNY     73  52  47 NW15      30.12S
JEFFERSON CITY SUNNY     76  45  33 NW10      30.11S
ROLLA          SUNNY     74  49  41 N12       30.11S
SEDALIA        SUNNY     76  49  38 NW13      30.14F
WHITEMAN AFB   SUNNY     74  51  44 NW13      30.14F
OSAGE BEACH    SUNNY     73  52  46 NW5       30.14R

$$
MOZ051-052-059>065-211800-
...EAST CENTRAL MISSOURI...

CITY           SKY/WX    TMP DP  RH WIND       PRES   REMARKS
ST LOUIS INTL  SUNNY     77  50  38 W16       30.05F
SPIRIT OF STL  SUNNY     75  48  38 NW15G23   30.05S
ST CHARLES     SUNNY     75  48  38 NW14G21   30.04S

$$
MOZ072>076-082>087-097>100-106>115-211800-
...SOUTH CENTRAL AND SOUTHEAST MISSOURI...

CITY           SKY/WX    TMP DP  RH WIND       PRES   REMARKS
CAPE GIRARDEAU SUNNY     78  56  46 N13       30.03S
FARMINGTON     SUNNY     73  46  38 NW10G17   30.10S
POPLAR BLUFF   SUNNY     82  59  45 N8        30.02S
WEST PLAINS    SUNNY     77  48  35 N12G18    30.13R

$$


USA.gov is the U.S. government's official web portal to all federal, state and local government web resources and services.